VE3MJM-WX Weather Reports


time (UTC)temp
C
wind
direction
speed
KPH
gust
KPH
rain 1hr
cm
rain 24hr
cm
rain mn
cm
humidity
%
barometer
mb
20260503180009 13 274 8.0 27.4 0.00 0.00 0.00 42 1003.4
20260503174507 15 277 9.7 37.0 0.00 0.00 0.00 41 1003.3
20260503173004 15 214 8.0 27.4 0.00 0.00 0.00 40 1003.5
20260503171501 15 90 8.0 24.1 0.00 0.00 0.00 40 1003.7
20260503081332 0 0 0.0 0.0 0.00 0.00 0.00 85 1009.3
20260503072822 -1 0 0.0 0.0 0.00 0.00 0.00 88 1009.3
20260503071319 -1 0 0.0 0.0 0.00 0.00 0.00 88 1009.3
20260503054334 -2 0 0.0 0.0 0.00 0.00 0.00 91 1010.4
20260503052834 -2 0 0.0 0.0 0.00 0.00 0.00 87 1010.4
20260503051331 -2 0 0.0 0.0 0.00 0.00 0.00 86 1010.7
20260503045827 -2 0 0.0 0.0 0.00 0.00 0.00 90 1010.8
20260503044324 -2 0 0.0 0.0 0.00 0.00 0.00 92 1011.0
20260503042821 -2 0 0.0 0.0 0.00 0.00 0.00 90 1011.0
20260503041319 -2 0 0.0 0.0 0.00 0.00 0.00 87 1010.9
20260503035819 -2 0 0.0 0.0 0.00 0.00 0.00 88 1011.0
20260503034314 -2 0 0.0 0.0 0.00 0.00 0.00 87 1011.1
20260503032813 -2 0 0.0 0.0 0.00 0.00 0.00 87 1011.2
20260503031311 -1 0 0.0 0.0 0.00 0.00 0.00 84 1011.3
20260503025808 -1 0 0.0 0.0 0.00 0.00 0.00 82 1011.0
20260503024304 -1 0 0.0 0.0 0.00 0.00 0.00 83 1011.4
20260503022803 -1 0 0.0 0.0 0.00 0.00 0.00 77 1011.5
20260503021301 0 0 0.0 0.0 0.00 0.00 0.00 78 1011.3
20260503015756 0 0 0.0 0.0 0.00 0.00 0.00 71 1011.2
20260503014253 0 0 0.0 0.0 0.00 0.00 0.00 65 1011.0
20260503012751 0 0 0.0 0.0 0.00 0.00 0.00 67 1010.9
20260503011248 1 0 0.0 0.0 0.00 0.00 0.00 64 1010.9
20260503005746 2 0 0.0 0.0 0.00 0.00 0.00 58 1010.7
20260503004243 3 287 1.6 3.2 0.00 0.00 0.00 51 1010.5
20260503002741 3 288 4.8 12.9 0.00 0.00 0.00 47 1010.4
20260503001238 4 291 8.0 20.9 0.00 0.00 0.00 45 1010.2
20260502235735 5 298 11.3 24.1 0.00 0.00 0.00 44 1010.0
20260502234233 5 295 14.5 27.4 0.00 0.00 0.00 44 1010.1
20260502232730 5 296 22.5 45.1 0.00 0.00 0.00 40 1010.0
20260502231228 5 298 19.3 32.2 0.00 0.00 0.00 38 1009.9
20260502225725 5 296 25.7 40.2 0.00 0.00 0.00 38 1010.0
20260502224223 6 299 22.5 45.1 0.00 0.00 0.00 41 1009.9
20260502222720 6 303 22.5 45.1 0.00 0.00 0.00 39 1009.9
20260502221218 6 297 19.3 37.0 0.00 0.00 0.00 43 1009.8
20260502215715 6 295 17.7 37.0 0.00 0.00 0.00 44 1009.9
20260502214213 5 301 17.7 27.4 0.00 0.00 0.00 47 1009.8
20260502212710 5 299 19.3 37.0 0.00 0.00 0.00 49 1009.8